Location: Sluknov
(51.0170°N, 14.4670°E)
Time: 08:38:45
(UTC+01:00)

Envisat - Visible Passes

Search period start: 09 February 2026 00:00
Search period end: 19 February 2026 00:00
Orbit: 761 x 763 km, 98.4° (Epoch: 8 February)

Date Brightness Start Highest point End Pass type
(mag) Time Alt. Az. Time Alt. Az. Time Alt. Az.
9 Feb 5.6 03:43:11 10° N 03:43:29 12° N 03:43:29 12° N visible
10 Feb 5.8 03:05:12 10° NNE 03:05:21 11° NNE 03:05:21 11° NNE visible
10 Feb 5.4 04:45:28 10° NNW 04:45:28 10° NNW 04:45:28 10° NNW visible
11 Feb 5.4 04:06:50 10° N 04:07:20 12° N 04:07:20 12° N visible
12 Feb 5.5 03:28:39 10° N 03:29:12 13° N 03:29:12 13° N visible
13 Feb 5.8 02:50:46 10° NNE 02:51:04 12° NNE 02:51:04 12° NNE visible
13 Feb 5.3 04:30:38 10° N 04:31:13 12° NNW 04:31:13 12° NNW visible
14 Feb 5.3 03:52:13 10° N 03:53:04 14° N 03:53:04 14° N visible
15 Feb 5.5 03:14:09 10° N 03:14:56 15° N 03:14:56 15° N visible
15 Feb 5.2 04:54:45 10° NNW 04:55:04 11° NNW 04:55:04 11° NNW visible
16 Feb 5.8 02:36:22 10° NNE 02:36:48 12° NNE 02:36:48 12° NNE visible
16 Feb 5.2 04:15:55 10° N 04:16:55 15° NNW 04:16:55 15° NNW visible
17 Feb 5.2 03:37:39 10° N 03:38:47 17° N 03:38:47 17° N visible
18 Feb 5.5 02:59:41 10° NNE 03:00:40 16° NNE 03:00:40 16° NNE visible
18 Feb 5.1 04:39:48 10° NNW 04:40:48 13° NNW 04:40:48 13° NNW visible
